IT9GFD-13 Weather Reports


time (UTC)temp
C
wind
direction
speed
KPH
gust
KPH
rain 1hr
cm
rain 24hr
cm
rain mn
cm
humidity
%
barometer
mb
20260507103016 24 113 14.5 25.7 0.00 0.00 0.00 39 1006.9
20260507102017 24 135 11.3 27.4 0.00 0.00 0.00 40 1007.6
20260507101016 24 90 12.9 25.7 0.00 0.00 0.00 40 1008.0
20260507100016 24 90 12.9 30.6 0.00 0.00 0.00 40 1007.5
20260507095016 24 90 9.7 25.7 0.00 0.00 0.00 40 1008.2
20260507094016 23 90 16.1 29.0 0.00 0.00 0.00 40 1008.9
20260507093016 23 90 11.3 29.0 0.00 0.00 0.00 42 1009.8
20260507092016 23 113 14.5 32.2 0.00 0.00 0.00 42 1011.1
20260507091016 23 113 14.5 27.4 0.00 0.00 0.00 43 1010.7
20260507090036 23 135 12.9 29.0 0.00 0.00 0.00 45 1010.1
20260507085016 23 113 11.3 27.4 0.00 0.00 0.00 44 1010.0
20260507084016 22 90 11.3 24.1 0.00 0.00 0.00 47 1010.5
20260507083037 22 90 9.7 19.3 0.00 0.00 0.00 47 1011.4
20260507082017 22 113 9.7 22.5 0.00 0.00 0.00 49 1011.5
20260507081016 22 68 9.7 19.3 0.00 0.00 0.00 52 1011.1
20260507080016 22 113 11.3 27.4 0.00 0.00 0.00 50 1010.0
20260507075016 22 158 8.0 25.7 0.00 0.00 0.00 47 1010.6
20260507074016 22 90 9.7 20.9 0.00 0.00 0.00 48 1011.9
20260507073016 21 113 8.0 22.5 0.00 0.00 0.00 48 1013.6
20260507072036 21 113 6.4 14.5 0.00 0.00 0.00 50 1014.5
20260507071016 21 113 9.7 22.5 0.00 0.00 0.00 52 1014.6
20260507070016 20 90 9.7 16.1 0.00 0.00 0.00 56 1014.6
20260507065036 18 23 1.6 6.4 0.00 0.00 0.00 74 1014.8
20260507064016 18 315 4.8 11.3 0.00 0.00 0.00 76 1015.1
20260507063016 17 293 3.2 9.7 0.00 0.00 0.00 75 1015.2
20260507062016 17 0.0 0.0 0.00 0.00 0.00 78 1015.1
20260507061036 17 0.0 0.0 0.00 0.00 0.00 79 1015.3
20260507060016 17 0.0 0.0 0.00 0.00 0.00 80 1015.2
20260507055016 17 0.0 0.0 0.00 0.00 0.00 80 1015.3
20260507054016 17 0.0 0.0 0.00 0.00 0.00 80 1015.2
20260507053016 17 0.0 0.0 0.00 0.00 0.00 81 1015.4
20260507052016 17 0.0 0.0 0.00 0.00 0.00 82 1015.3
20260507051016 17 90 1.6 4.8 0.00 0.00 0.00 82 1015.4
20260507050016 17 0.0 3.2 0.00 0.00 0.00 82 1015.3
20260507045016 17 113 1.6 4.8 0.00 0.00 0.00 82 1015.3
20260507044016 17 0.0 3.2 0.00 0.00 0.00 81 1015.6
20260507043016 17 0.0 0.0 0.00 0.00 0.00 80 1015.5
20260507042016 17 113 4.8 11.3 0.00 0.00 0.00 77 1015.7
20260507041016 18 90 1.6 6.4 0.00 0.00 0.00 71 1015.7
20260507040016 17 0.0 0.0 0.00 0.00 0.00 65 1015.6
20260507035016 17 0.0 6.4 0.00 0.00 0.00 66 1015.4
20260507034016 17 203 1.6 11.3 0.00 0.00 0.00 68 1015.3
20260507033016 17 0.0 0.0 0.00 0.00 0.00 70 1015.3
20260507032016 17 0.0 3.2 0.00 0.00 0.00 73 1015.1
20260507031016 17 0.0 0.0 0.00 0.00 0.00 74 1015.3
20260507030016 17 0.0 0.0 0.00 0.00 0.00 76 1015.3
20260507025036 17 0.0 0.0 0.00 0.00 0.00 78 1015.3
20260507024016 17 90 1.6 6.4 0.00 0.00 0.00 80 1015.0
20260507023016 17 0.0 3.2 0.00 0.00 0.00 83 1015.2
20260507022016 17 45 1.6 4.8 0.00 0.00 0.00 85 1015.3
20260507021015 17 293 1.6 4.8 0.00 0.00 0.00 86 1015.6
20260507020016 17 315 1.6 4.8 0.00 0.00 0.00 86 1015.6
20260507015016 17 0.0 6.4 0.00 0.00 0.00 87 1015.4
20260507014015 17 90 4.8 11.3 0.00 0.00 0.00 86 1015.2
20260507013015 17 90 4.8 12.9 0.00 0.00 0.00 86 1015.7
20260507012016 17 113 3.2 11.3 0.00 0.00 0.00 86 1015.8
20260507011016 17 135 9.7 17.7 0.00 0.00 0.00 85 1015.7
20260507010016 17 68 8.0 16.1 0.00 0.00 0.00 85 1015.8
20260507005016 17 68 4.8 12.9 0.00 0.00 0.00 84 1015.8
20260507004016 17 68 6.4 14.5 0.00 0.00 0.00 84 1015.9
20260507003015 17 90 6.4 11.3 0.00 0.00 0.00 85 1016.1
20260507002016 17 90 1.6 6.4 0.00 0.00 0.00 85 1016.3
20260507001015 17 113 4.8 11.3 0.00 0.00 0.00 86 1016.4
20260507000015 17 113 6.4 12.9 0.00 0.00 0.00 86 1016.3
20260506235015 17 90 6.4 14.5 0.00 0.00 0.00 86 1016.3
20260506234015 17 113 11.3 22.5 0.00 0.00 0.00 86 1016.3
20260506233015 17 90 12.9 24.1 0.00 0.00 0.00 86 1016.0
20260506232015 17 90 9.7 22.5 0.00 0.00 0.00 86 1015.9
20260506231015 17 113 12.9 27.4 0.00 0.00 0.00 85 1015.8
20260506230015 17 113 12.9 29.0 0.00 0.00 0.00 84 1015.8
20260506225015 17 90 9.7 24.1 0.00 0.00 0.00 80 1015.8
20260506224018 18 113 9.7 19.3 0.00 0.00 0.00 76 1015.6
20260506223015 18 135 8.0 19.3 0.00 0.00 0.00 71 1015.6
20260506222015 18 113 11.3 22.5 0.00 0.00 0.00 70 1015.6
20260506221015 18 113 8.0 22.5 0.00 0.00 0.00 70 1015.5
20260506220015 17 113 9.7 22.5 0.00 0.00 0.00 70 1015.4
20260506215017 17 135 6.4 17.7 0.00 0.00 0.00 73 1015.6
20260506214024 17 90 3.2 11.3 0.00 0.00 0.00 79 1015.5
20260506213035 17 90 3.2 11.3 0.00 0.00 0.00 82 1015.2
20260506212017 16 113 1.6 9.7 0.00 0.00 0.00 85 1015.0
20260506211017 16 68 1.6 11.3 0.00 0.00 0.00 88 1015.2
20260506210017 17 135 3.2 6.4 0.00 0.00 0.00 89 1015.4
20260506205018 17 0.0 3.2 0.00 0.00 0.00 89 1015.6
20260506203017 17 113 6.4 14.5 0.00 0.00 0.00 89 1016.3
20260506202017 17 113 6.4 16.1 0.00 0.00 0.00 89 1016.6
20260506201038 17 135 4.8 14.5 0.00 0.00 0.00 89 1016.7
20260506200017 17 113 9.7 22.5 0.00 0.00 0.00 89 1016.9
20260506195017 17 90 9.7 19.3 0.00 0.00 0.00 89 1016.9
20260506194017 17 113 9.7 20.9 0.00 0.00 0.00 89 1016.8
20260506193017 17 113 8.0 16.1 0.00 0.00 0.00 89 1016.9
20260506192017 17 113 8.0 17.7 0.00 0.00 0.00 88 1016.8
20260506191037 17 90 8.0 17.7 0.00 0.00 0.00 88 1016.9
20260506190018 17 90 8.0 17.7 0.00 0.00 0.00 88 1017.0
20260506185017 17 113 9.7 22.5 0.00 0.00 0.00 88 1016.7
20260506184017 17 135 9.7 20.9 0.00 0.00 0.00 87 1016.5
20260506183017 17 113 6.4 17.7 0.00 0.00 0.00 87 1016.5
20260506182017 17 113 9.7 19.3 0.00 0.00 0.00 86 1016.2
20260506181017 17 113 8.0 19.3 0.00 0.00 0.00 86 1016.2
20260506180016 17 135 4.8 12.9 0.00 0.00 0.00 85 1015.9
20260506175017 17 135 6.4 17.7 0.00 0.00 0.00 85 1015.8
20260506174017 18 113 8.0 17.7 0.00 0.00 0.00 84 1015.8
20260506173016 18 90 6.4 12.9 0.00 0.00 0.00 85 1015.8
20260506172017 18 113 6.4 14.5 0.00 0.00 0.00 85 1015.9
20260506171017 18 90 4.8 11.3 0.00 0.00 0.00 85 1016.0
20260506170017 18 113 6.4 12.9 0.00 0.00 0.00 85 1016.2
20260506165017 18 113 8.0 17.7 0.00 0.00 0.00 85 1016.2
20260506164017 18 113 6.4 14.5 0.00 0.00 0.00 85 1016.2
20260506163037 18 113 8.0 17.7 0.00 0.00 0.00 85 1016.2
20260506162017 18 113 9.7 17.7 0.00 0.00 0.00 85 1016.2
20260506161017 18 113 11.3 17.7 0.00 0.00 0.00 84 1016.5
20260506160017 18 113 9.7 17.7 0.00 0.00 0.00 84 1016.5
20260506155016 18 113 9.7 20.9 0.00 0.00 0.00 84 1016.5
20260506154017 18 90 12.9 24.1 0.00 0.00 0.00 84 1016.7
20260506153036 18 90 11.3 20.9 0.00 0.00 0.00 84 1016.6
20260506152016 18 90 12.9 25.7 0.00 0.00 0.00 84 1016.7
20260506151017 18 113 12.9 30.6 0.00 0.00 0.00 83 1016.6
20260506150016 18 113 17.7 30.6 0.00 0.00 0.00 83 1016.5
20260506145017 18 113 12.9 29.0 0.00 0.00 0.00 83 1016.6
20260506144016 18 90 14.5 24.1 0.00 0.00 0.00 82 1016.6
20260506143016 18 90 14.5 29.0 0.00 0.00 0.00 81 1016.3
20260506142016 19 113 16.1 32.2 0.00 0.00 0.00 80 1016.2
20260506141036 19 90 14.5 24.1 0.00 0.00 0.00 81 1016.2
20260506140017 19 113 14.5 29.0 0.00 0.00 0.00 82 1016.3
20260506135017 19 68 12.9 25.7 0.00 0.00 0.00 82 1016.4
20260506134017 18 113 11.3 19.3 0.00 0.00 0.00 83 1016.3
20260506133016 18 113 17.7 32.2 0.00 0.00 0.00 83 1016.5
20260506132016 18 113 19.3 32.2 0.00 0.00 0.00 83 1016.6
20260506131016 18 90 16.1 29.0 0.00 0.00 0.00 83 1016.6
20260506130037 19 113 16.1 29.0 0.00 0.00 0.00 82 1016.9
20260506125016 19 90 12.9 25.7 0.00 0.00 0.00 82 1016.8
20260506124016 19 113 16.1 30.6 0.00 0.00 0.00 80 1016.8
20260506123016 19 90 14.5 24.1 0.00 0.00 0.00 80 1016.8
20260506122017 19 68 12.9 22.5 0.00 0.00 0.00 81 1016.9
20260506121016 19 90 17.7 30.6 0.00 0.00 0.00 80 1017.0
20260506120036 20 45 8.0 20.9 0.00 0.00 0.00 79 1017.2
20260506115016 19 45 9.7 19.3 0.00 0.00 0.00 80 1017.3
20260506114056 19 90 11.3 20.9 0.00 0.00 0.00 80 1017.4
20260506113016 19 68 12.9 22.5 0.00 0.00 0.00 79 1017.5
20260506112016 19 68 11.3 22.5 0.00 0.00 0.00 81 1017.3
20260506111016 19 68 8.0 16.1 0.00 0.00 0.00 81 1017.3
20260506110016 19 90 9.7 22.5 0.00 0.00 0.00 81 1017.4
20260506105016 20 90 9.7 24.1 0.00 0.00 0.00 81 1017.4
20260506104016 19 68 9.7 22.5 0.00 0.00 0.00 82 1017.4